Leura Real Estate, NSW, 2780 Blue Mountains

Thinking about buying in Leura? Now could not be a better time, with a whopping 4067 properties either residential or commercial there's certainly plenty to choose from.

The average property price for this area is $880,000 with prices in this suburb ranging from $215,000 to $3,186,000.

Distance to the coast is 77 Km.

Leura Real Estate Market Outlook

In Leura there has been a history of lower than average prices and demand, offering opportunities for investors or first home owners, especially in the context of the growth in working from home. Low average incomes in Leura is reflected in smaller and lower quality accommodation. Over time this may change providsing long-term returns but in the short to medium term, prices are likely to be less than state averages. The slightly lower than average earnings from occupations in Leura changes the housing and lifestyle preference. It is more a matter of what can be afforded rather than what would we prefer, leading to slower price increases over time. Lower than average population density constrains growth in Leura to an extent. However, where buyers are willing to compromise on housing and lifestyle choice, there are affordable options. Higher than average industry presence in the wider area offering local employment yet with not a large negative impact on local amenity, provides good demand and price growth.

About

Properties For Sale

McGrath 31 WINSTON ST, LEURA, NSW, 2780 Contact Agent
McGrath 66 RAWSON PDE, LEURA, NSW, 2780 4 2 1 $995,000 - $1,045,000
McGrath 20 HOLMES ST, LEURA, NSW, 2780 4 3 2 $1,750,000 - $1,825,000
R&W 85 MOUNT ST, LEURA, NSW, 2780 2 2 1 $1,250,000 - $1,350,000

Local Schools


Leura Public School

(While the above schools are located with the suburb of Leura there may also be nearby schools whose catchments cover this suburb)

Local Crime Rates


Average Local Climate by month


(mm)
RAIN
Min (°C)
TEMP
Max (°C)
TEMP
Min (%)
HUMIDITY
Max (%)
HUMIDITY
(m/sec)
WIND
(MJ/sq m)
SOLAR
Jan2.113.127.939.693.91.622.0
Feb4.711.924.247.0951.818.7
Mar3.510.12250.795.71.615.4
Apr0.95.519.84596.01.414.0
May1.21.414.850.095.91.410.6
Jun1.40.911.658.996.21.48.6
Jul1.5-0.411.851.093.81.710.1
Aug2.2-0.412.445.393.61.912.4
Sept1.9216.540.694.31.816.4
Oct1.85.820.141.494.51.619.0
Nov2.77.723.334.792.32.023
Dec2.310.625.736.791.31.923.5

source: Australian Government Bureau of Meteorology

Recently Sold Properties / House Prices

27-07-2022 $1,255,000 43 HIGHLAND ST LEURA 2780
25-07-2022 $825,000 87 QUEENS RD LEURA 2780
21-07-2022 $805,000 74 LEURA MALL LEURA 2780
20-07-2022 $1,810,000 16 SUBLIME POINT RD LEURA 2780
20-07-2022 $570,000 51 SUBLIME POINT RD LEURA 2780
08-07-2022 $450,000 9 / 2 GREAT WESTERN HWY LEURA 2780
08-07-2022 $2,000,000 118 LEURA MALL LEURA 2780
08-07-2022 $1,695,000 98 MEGALONG ST LEURA 2780
06-07-2022 $1,760,000 7 HOLMES ST LEURA 2780
05-07-2022 $1,150,000 67 MARMION RD LEURA 2780
01-07-2022 $914,000 6 MORVEN RD LEURA 2780
30-06-2022 $500,000 30 MOUNT HAY RD LEURA 2780
28-06-2022 $910,000 95 MEGALONG ST LEURA 2780
28-06-2022 $1,572,000 13 ORCHARD LANE LEURA 2780
23-06-2022 $450,000 59 / 100 LEURA MALL LEURA 2780
20-06-2022 $1,020,000 14 ABBEY ST LEURA 2780
17-06-2022 $1,525,000 32 KURRAWANG ST LEURA 2780
10-06-2022 $1,850,000 33 EVERGLADES AVE LEURA 2780
09-06-2022 $512,000 1 / 8 GREAT WESTERN HWY LEURA 2780
08-06-2022 $600,000 12 COOK ST LEURA 2780
27-05-2022 $2,180,000 5 TENNYSON AVE LEURA 2780
27-05-2022 $935,000 16 LEURA MALL LEURA 2780
26-05-2022 $1,180,000 49 RAWSON PDE LEURA 2780
25-05-2022 $1,480,000 59 CRAIGEND ST LEURA 2780
24-05-2022 $2,200,000 107 GLADSTONE RD LEURA 2780
20-05-2022 $1,075,000 3 / 42 GROSE ST LEURA 2780
19-05-2022 $510,000 12 / 2 GREAT WESTERN HWY LEURA 2780
11-05-2022 $1,400,000 4 RUSSELL RD LEURA 2780
06-05-2022 $800,000 4 GLADSTONE RD LEURA 2780
03-05-2022 $537,000 18 / 8 GREAT WESTERN HWY LEURA 2780
27-04-2022 $1,250,000 16 GROSE ST LEURA 2780
27-04-2022 $1,250,000 16 GROSE ST LEURA 2780
26-04-2022 $1,060,000 25 BRITAIN ST LEURA 2780
22-04-2022 $490,000 3 / 2 GREAT WESTERN HWY LEURA 2780
21-04-2022 $805,000 20 STRATHEARN RD LEURA 2780
20-04-2022 $810,000 8 / 21 JERSEY AVE LEURA 2780
14-04-2022 $1,152,000 91 RAILWAY PDE LEURA 2780
13-04-2022 $1,250,000 25 ST ANDREWS RD LEURA 2780
12-04-2022 $1,060,000 75 MEGALONG ST LEURA 2780
06-04-2022 $1,240,000 26 SCOTT AVE LEURA 2780
04-04-2022 $425,000 4 / 2 GREAT WESTERN HWY LEURA 2780
30-03-2022 $1,750,000 35 ABBEY ST LEURA 2780
29-03-2022 $1,525,000 9 HERBERT ST LEURA 2780
29-03-2022 $950,000 123 CRAIGEND ST LEURA 2780
25-03-2022 $535,000 15 / 8 GREAT WESTERN HWY LEURA 2780
25-03-2022 $2,300,000 53 MORVEN RD LEURA 2780
22-03-2022 $540,000 67 / 100 LEURA MALL LEURA 2780
22-03-2022 $540,000 67 / 100 LEURA MALL LEURA 2780
22-03-2022 $880,000 30 NORTHCOTE RD LEURA 2780
18-03-2022 $1,420,000 34 NORTHCOTE RD LEURA 2780

Internet Speed

  • Fibre to the Node
  • Fibre to the Premises
  • Satellite

Residz covers 12m+ Australian properties and brings together a wealth of data to give you a better understanding of an area. From crime and schools to bush fire, flood risk and more. Begin your search for properties for sale or learn more about where you currently reside. Residz is an exciting next-generation Real Estate platform getting better by the day!